Zurück zum Katalog

STARLINK-35592

AktivKommunikationVLEO
NORAD 66136·PAYLOAD·🇺🇸 United States

Gestartet Oct 22, 2025 von Vandenberg Space Force Base

Loading…

Nächste Überflüge (nächste 24 Stunden)

TLE

AktuellSource: CelesTrak SupGP

Epoche: Sep 14, 2026, 21:10 UTC

1 66136C 25237Y   26257.88243056  .00045916  00000+0  13565-2 0  2572
2 66136  53.1571 237.7424 0001297 100.9684 143.5413 15.34370984    18

Verfolge STARLINK-35592 in Echtzeit mit AllMySat

Download on the App Store